Location: Newark
(40.7360°N, 74.1730°W)
Time: 22:48:28
(UTC-04:00)

ISS - All Passes

Search period start: 25 April 2015 00:00
Search period end: 05 May 2015 00:00
Orbit: 395 x 402 km, 51.6° (Epoch: 25 April)

Date Brightness Start Highest point End Pass type
(mag) Time Alt. Az. Time Alt. Az. Time Alt. Az.
25 Apr - 11:49:07 10° SSW 11:51:58 29° SE 11:54:52 10° ENE daylight
25 Apr - 13:25:17 10° W 13:28:18 33° NNW 13:31:19 10° NE daylight
25 Apr - 15:03:42 10° NW 15:05:24 13° N 15:07:06 10° NNE daylight
25 Apr - 16:40:52 10° NNW 16:42:48 15° NNE 16:44:45 10° NE daylight
25 Apr - 18:16:37 10° NW 18:19:47 46° NNE 18:22:56 10° ESE daylight
25 Apr - 19:53:29 10° W 19:55:57 20° SW 19:58:21 10° S daylight
26 Apr - 10:56:11 10° SSE 10:58:03 15° SE 11:00:01 10° E daylight
26 Apr - 12:30:54 10° WSW 12:34:06 59° NW 12:37:21 10° NE daylight
26 Apr - 14:08:52 10° NW 14:11:00 16° NNW 14:13:07 10° NNE daylight
26 Apr - 15:46:49 10° NNW 15:48:22 13° N 15:49:57 10° NE daylight
26 Apr - 17:22:41 10° NW 17:25:33 28° NNE 17:28:26 10° E daylight
26 Apr - 18:58:54 10° WNW 19:01:59 39° SW 19:05:01 10° SSE daylight
27 Apr - 11:36:45 10° SW 11:39:59 69° SE 11:43:13 10° ENE daylight
27 Apr - 13:14:01 10° WNW 13:16:36 21° NNW 13:19:11 10° NNE daylight
27 Apr - 14:52:27 10° NNW 14:53:53 12° N 14:55:19 10° NNE daylight
27 Apr - 16:28:44 10° NNW 16:31:12 19° NNE 16:33:40 10° ENE daylight
27 Apr - 18:04:38 10° NW 18:07:54 83° SW 18:11:09 10° SE daylight
28 Apr - 10:42:57 10° SSW 10:45:53 32° SE 10:48:51 10° ENE daylight
28 Apr - 12:19:16 10° W 12:22:14 31° NNW 12:25:12 10° NE daylight
28 Apr - 13:57:43 10° NW 13:59:21 13° N 14:01:00 10° NNE daylight
28 Apr - 15:34:45 10° NNW 15:36:44 15° NNE 15:38:45 10° NE daylight
28 Apr - 17:10:29 10° NW 17:13:41 50° NNE 17:16:51 10° ESE daylight
28 Apr - 18:47:30 10° W 18:49:48 18° SW 18:52:02 10° S daylight
29 Apr - 09:49:45 10° S 09:51:49 16° SE 09:53:58 10° E daylight
29 Apr - 11:24:42 10° WSW 11:27:54 54° NNW 11:31:06 10° NE daylight
29 Apr - 13:02:45 10° NW 13:04:49 15° NNW 13:06:52 10° NNE daylight
29 Apr - 14:40:36 10° NNW 14:42:11 13° N 14:43:47 10° NE daylight
29 Apr - 16:16:25 10° NW 16:19:19 29° NNE 16:22:15 10° E daylight
29 Apr - 17:52:41 10° WNW 17:55:43 35° SW 17:58:42 10° SSE daylight
30 Apr - 10:30:23 10° SW 10:33:37 76° SE 10:36:52 10° ENE daylight
30 Apr - 12:07:46 10° WNW 12:10:17 20° NNW 12:12:47 10° NNE daylight
30 Apr - 13:46:09 10° NNW 13:47:34 12° N 13:48:59 10° NNE daylight
30 Apr - 15:22:20 10° NNW 15:24:51 20° NNE 15:27:23 10° ENE daylight
30 Apr - 16:58:15 10° WNW 17:01:30 75° SW 17:04:44 10° SE daylight
01 May - 09:36:24 10° SSW 09:39:23 35° SE 09:42:24 10° ENE daylight
01 May - 11:12:51 10° W 11:15:46 29° NNW 11:18:40 10° NE daylight
01 May - 12:51:19 10° NW 12:52:55 13° N 12:54:29 10° NNE daylight
01 May - 14:28:13 10° NNW 14:30:16 15° NNE 14:32:20 10° NE daylight
01 May - 16:03:58 10° NW 16:07:10 54° NNE 16:10:22 10° ESE daylight
01 May - 17:41:07 10° W 17:43:15 16° SW 17:45:18 10° S daylight
02 May - 08:42:57 10° S 08:45:11 18° SE 08:47:29 10° E daylight
02 May - 10:18:07 10° WSW 10:21:17 49° NNW 10:24:28 10° NE daylight
02 May - 11:56:14 10° NW 11:58:14 15° NNW 12:00:12 10° NNE daylight
02 May - 13:33:58 10° NNW 13:35:36 13° N 13:37:14 10° NE daylight
02 May - 15:09:44 10° NW 15:12:42 31° NNE 15:15:39 10° E daylight
02 May - 16:46:05 10° WNW 16:49:02 32° SW 16:51:58 10° SSE daylight
03 May - 09:23:38 10° SW 09:26:52 83° SE 09:30:07 10° NE daylight
03 May - 11:01:06 10° WNW 11:03:33 19° NNW 11:05:59 10° NNE daylight
03 May - 12:39:26 10° NNW 12:40:50 12° N 12:42:15 10° NNE daylight
03 May - 14:15:32 10° NNW 14:18:06 21° NNE 14:20:41 10° ENE daylight
03 May - 15:51:28 10° WNW 15:54:43 68° SW 15:57:56 10° SE daylight
04 May - 08:29:28 10° SSW 08:32:30 39° SE 08:35:32 10° ENE daylight
04 May - 10:06:02 10° W 10:08:53 28° NNW 10:11:45 10° NE daylight
04 May - 11:44:30 10° NW 11:46:03 13° N 11:47:35 10° NNE daylight
04 May - 13:21:17 10° NNW 13:23:23 16° NNE 13:25:30 10° NE daylight
04 May - 14:57:02 10° NW 15:00:16 59° NE 15:03:28 10° ESE daylight
04 May - 16:34:20 10° W 16:36:17 15° SW 16:38:09 10° SSW daylight
